Powrót do katalogu

FALCON HEAVY R/B

AktywnyMEO
NORAD 68894·ROCKET BODY·🇺🇸 United States

Wystrzelony Apr 29, 2026 z Cape Canaveral Space Force Station

Loading…

Następne Przeloty (najbliższe 24 godziny)

TLE

ŚwieżeSource: Space-Track

Epoka: Sep 14, 2026, 09:55 UTC

1 68894U 26096B   26257.41328855 -.00000123  00000-0  00000-0 0  9993
2 68894   2.4467 277.3200 1479136 186.9555 170.2169  1.35919182  1872

Śledź FALCON HEAVY R/B w czasie rzeczywistym z AllMySat

Download on the App Store